Location: Marcé
(47.5801°N, 0.3280°W)
Time: 09:34:45
(UTC+01:00)

Vanguard 3 - Pass Details

Date: 09 December 2021
Orbit: 508 x 3260 km, 33.3° (Epoch: 24 January)

Event Time Altitude Azimuth Distance (km) Brightness Sun altitude
Rises 03:22:09 0° 231° (SW) 6,444 - -51.4°
Reaches altitude 10° 03:26:22 10° 225° (SW) 5,698 - -50.8°
Exits shadow 03:42:07 44° 169° (S) 4,026 10.3 -48.4°
Maximum altitude 03:43:19 45° 161° (SSE) 4,017 10.4 -48.2°
Drops below altitude 10° 04:00:19 10° 98° (E) 5,726 11.9 -45.5°
Sets 04:04:31 0° 92° (E) 6,480 12.4 -44.8°
